braxton's sites:

title views votes rating creation
?My Drunk Mother in Law 2 1,958 22 (4.27)  2011-01-09
?My Drunk Mother in Law 4,969 50 (3.96)  2011-01-04
?My Drunk Ex-Wife 2,256 25 (4.00)  2010-07-06
?Gr33n Art Nouveau 907 18 (3.61)  2009-12-12
?(nsfw) Max and Friends Relax.avi 1,894 46 (4.11)  2009-10-27
?Choose the new Xanax campaign billboard 899 19 (4.16)  2009-09-15
?Emma and Steph 5,323 104 (3.86)  2009-07-25
?TournamenTMND3: LOSERS BRACKET 1,045 33 (4.09)  2009-07-23
?YteamND Collab: Lester's Room 846 20 (4.20)  2009-07-21
?(nsfw) Walter Cronkite's Last Skeet 2,300 25 (4.08)  2009-07-17
?TOURNEY3: DramamarD 777 14 (4.00)  2009-07-16
?5509 Chestnut Street 993 10 (4.50)  2009-07-15
?(nsfw) Words are Important 1,445 21 (4.29)  2009-07-05
?The Final 2 Users of YTMND 653 14 (3.29)  2009-07-05
?Elastic Snap Hole of the Love Bear I'm Late ... 893 17 (3.82)  2009-07-05
?Hey Man Nice Pez 1,200 22 (4.18)  2009-05-25
?Lester and All Man in 2012 2,664 50 (4.14)  2009-02-26
?AMFSTFU 3,607 21 (3.76)  2009-02-14
?MICROPHONETMND: Feedback 792 33 (4.03)  2009-02-11
?Braxton has an answer for Max 1,330 46 (3.96)  2008-12-30
?Shoe Jokes 1,019 21 (3.86)  2008-12-15
?Braxton is no longer featured 795 34 (3.68)  2008-12-05
?Am I Still Featured? 673 11 (3.36)  2008-12-05
?American People 2,406 58 (3.79)  2008-10-31
?(nsfw) Lester and All Man Vote 3,689 149 (4.03)  2008-10-22
?Venus in Spurs 1,743 51 (3.29)  2008-10-15
?1987 Fleer 2,360 54 (3.37)  2008-10-14
?Moon Man vs. All Man 2,239 80 (3.69)  2008-09-21
?(nsfw) Sparkles 3,616 147 (4.02)  2008-09-05
?Bill Kurtis finds the Internet 5,286 64 (3.58)  2008-08-25
?Another site about tits 6,078 101 (3.93)  2008-08-22
?John Cusack in... Eat Anything 5,373 32 (4.09)  2008-08-20
?(nsfw) fyrestorm vs tits 16,813 282 (3.98)  2008-08-19
?you know why you didn't see a sign? 1,991 37 (4.30)  2008-06-29
?Small Brown Men 381 5 (3.80)  2008-06-26
?Harry Potter and the Best Fad Ever 1,250 19 (3.89)  2008-06-16
?Custer's Revenge 3,676 34 (4.32)  2008-06-15
?Pushing your button 506 8 (4.13)  2008-06-08
?KHOCKTMND 421 13 (3.00)  2008-06-08
?Road Raging 625 15 (3.47)  2008-06-07
?McCain's Secret Identity 698 12 (3.58)  2008-06-07
?Lester and All-Man Night on the Town 2,141 45 (4.27)  2008-06-05
?Lester and All-Man's Day Off 4,026 78 (4.21)  2008-05-31
?Beheading Heidi Montag 1,088 14 (3.64)  2008-05-31
?Indiana Jones and the magical forest 547 14 (2.57)  2008-05-31
?Indiana Jones and the Temple of YTMND! 544 13 (2.38)  2008-05-31
?(nsfw) My Drunk Wife wants a divorce 12,623 182 (3.78)  2008-05-31
?Hulk Kok 804 13 (4.15)  2008-05-29
?(nsfw) Renee Zellweger vs Sarah Jessica Parker 15,378 270 (3.51)  2008-05-28
?Soft brain is perfect for crushing 429 8 (3.50)  2008-05-11
?See N Say 1,567 37 (4.19)  2008-05-10
?alphabetz and drugz 868 14 (3.86)  2008-05-09
?4 years ago NEVER FORGET 542 9 (2.78)  2008-05-08
?5 DAYS LATER NEVER FORGET 522 7 (2.43)  2008-05-08
?Miley Cyrus vs. Ninja 1,444 8 (2.00)  2008-05-07
?Dewey Duck gets a drug problem 509 10 (3.50)  2008-05-07
?McMuffin 1,605 11 (3.00)  2008-05-07
?Metal Gear VS. GTA4 587 13 (1.77)  2008-05-06
?Mila Kunis really likes milkshakes 1,030 11 (2.73)  2008-05-06
?Picard sexz Counselor Troy 824 10 (2.60)  2008-05-06
?Heidi Montag Sex Tape 870 5 (2.80)  2008-05-05
?Iron Man given go ahead for sequel 649 12 (2.25)  2008-05-05
?Eight Belles 362 7 (3.00)  2008-05-05
?My Drunk Wife Part 2 4,368 85 (4.24)  2008-03-17
?I found your balls 637 12 (3.58)  2008-02-13
?Ben from Short Circuit beats his wife 761 9 (2.22)  2008-02-13
?(nsfw) I vote for Obama because 1,024 9 (3.67)  2008-02-12
?Tom Brady is Beauty 588 4 (3.25)  2008-02-12
?Is this your baby? 470 4 (3.00)  2008-02-12
?(nsfw) My Drunk Wife 8,791 128 (4.49)  2008-02-10
?Hillary Clinton will be our next President 687 12 (2.67)  2008-01-27
?Uncle Phil Works his ass off 392 6 (2.83)  2008-01-25
?Crop your photos 908 27 (4.00)  2008-01-24
?Danson vs. Cruise who is truly God? 343 5 (3.40)  2008-01-17
?(nsfw) YTMND user's sister vs. Black man 680 10 (3.50)  2008-01-16
?2 Marshmallows do Snow White during a Thunders... 506 10 (3.50)  2008-01-16
?Pump you up 379 5 (3.00)  2008-01-16
?War, Famine, Conquest, Death, Cowabunga 278 9 (2.56)  2008-01-14
?(nsfw) Terrell Owens actin' like a bitch 1,069 11 (3.09)  2008-01-14
?Peppy Hare is invading Navy Waters 646 9 (2.22)  2008-01-13
?The coolest kid you knew on the short bus 823 15 (2.80)  2008-01-12
?(nsfw) Danson is all, all is Him 595 8 (3.00)  2008-01-11
?Danson vs. Connery (Refresh) 375 11 (2.36)  2008-01-09
?Ninja Scroll's Jubei vs. Michael J. Fox 583 5 (3.40)  2008-01-08
?Ted Danson Judgement Day 654 9 (3.44)  2008-01-08
?Full House's Stephanie's confession 1,160 24 (3.04)  2008-01-07
?Nobody can kick my ass 692 9 (3.56)  2008-01-07
?OMFG Obama 1,926 17 (3.29)  2008-01-07
?Hillary's revenge 875 9 (3.00)  2008-01-06
?Ted Danson epic procreation maneuver 723 15 (3.20)  2008-01-03
?Ted Danson epic evolution maneuver 1,397 22 (4.00)  2008-01-01
?Nigga stole my baby 2,138 9 (2.00)  2008-01-01
?Ted Danson invented jazz 583 9 (3.00)  2007-12-31
?Ted Danson is fighting the power 585 11 (3.55)  2007-12-31
?Ted Danson says hello 710 15 (3.93)  2007-12-30
?Eric Clapton...close your window 1,709 17 (1.76)  2007-12-30
?Ted Danson stole my race 1,314 35 (3.94)  2007-12-29
?Chinese people eat penis 1,097 14 (3.14)  2007-12-29
?You have chosen wisely 4,253 11 (3.64)  2007-12-29
?ASIAN WHORE LIKES TACOS 580 11 (2.45)  2007-12-28
?ASIAN WHORE HATES JEWS 973 12 (2.83)  2007-12-28
?ASIAN WHORE HAS TURTLE POWER 671 13 (3.00)  2007-12-28
?lol 563 6 (2.50)  2007-12-28
?Sonny Bono's child of incest wins the Showc... 1,105 9 (4.00)  2007-12-28
?(nsfw) Pootie Tang stole my bike 874 9 (2.67)  2007-12-27
?The answer is Not 566 6 (2.50)  2007-12-27
?Nigga Stole My Cat 2,452 21 (3.52)  2007-12-27